Tracking 31027 objects as of 19-Jul-2025
HD Live streaming from Space Station
objects crossing your sky now

STARLINK-30533

Track STARLINK-30533 now!
10-day predictions
STARLINK-30533 is classified as:


NORAD ID: 58037
Int'l Code: 2023-156K
Perigee: 521.6 km
Apogee: 522.2 km
Inclination: 53.2 °
Period: 94.9 minutes
Semi major axis: 6892 km
RCS: Unknown
Launch date: October 9, 2023
Source: United States (US)
Launch site: AIR FORCE WESTERN TEST RANGE (AFWTR)
Your satellite tracking list
COSMOS 1408 DEB
Track 1 satellite(s)




NASA's NSSDC Master Catalog

Two Line Element Set (TLE):
1 58037U 23156K   25199.91668981  .02046110  00000-0  93241-1 0  9998
2 58037  53.1590 173.8035 0000416  12.4148   4.8737 15.17050923 99242
Source of the keplerian elements: AFSPC